Showing default

CYGFM02, 41886

Orbit data source: Space-Track

CYGFM02, 41886 is an American payload satellite in LEO that was launched on Thu, 15 Dec 2016 UTC via a PEGASUS XL launch vehicle from the Pegasus Launch, Eastern Range Air Space (ERAS). Payload-class satellites include a variety of spacecraft equipped with specific instruments for various scientific and technological missions. These include communications satellites like Starlink; space stations such as the ISS; scientific satellites like the Hubble; Earth observation satellites from companies like Planet Labs, Umbra, and HawkEye 360; GPS; miniature CubeSats for education and research; and military/defense satellites.

Loading next visibility...
Identifier
41886, 2016-078C
Orbit
LEO
Last TLE update
7 hours ago
Origin
Manufacturer
SST-US
Mission
Extended mission Civil Science
Bus & Motor
CYGNSS, Unknown motor
Mass
29 kg wet, 29 kg dry
Launch date (UTC)
2016-12-15 (9 years ago)
Launch vehicle
PEGASUS XL
Launch site
Pegasus Launch, Eastern Range Air Space (ERAS)
Object type
Payload
Rocket body
Debris
Shape & HBR
Half Hex Cyl + 2 Pan, 1.7 m
Radar Cross Section
0.450 m², Medium (>0.1 m² and < 1m²)

Expand to show TLE details & history

TLE from 7 hours ago
0 CYGFM02
1 41886U 16078C   25183.57774198  .00011335  00000-0  24229-3 0  9991
2 41886  34.9456   5.5726 0009312 115.4523 244.7161 15.43937244474788
Epoch: 2025-07-02T13:51Z
TLE epoch observation values (Epoch: 2025-07-02T13:51:56.907Z)
Latitude
-0.00003°
Longitude
-123.2714°
Altitude
436.108 km
Speed
7.651 km/s
True Right ascension
00h 22m 17s
True Declination
0° 00' 00"
Sunlit
Object was in daylight at epoch
Visualization orbit readout
Latitude
-27.4163°
Longitude
102.35273°
Altitude
443.287 km
Speed
7.646 km/s
Apparent Right ascension
17h 46m 05s
Apparent Declination
-40° 41' 24"
Sunlit
Object is in full shadow
Visualization observer readout
Local Sidereal Time
08:48:45
Azimuth
106.439° ESE
Elevation
-55.566°
Doppler factor
1
Orbital elements
Apogee altitude
444.138 km
Perigee altitude
431.444 km
Semi-major axis
6,815.928 km
Eccentricity
0.00093
Inclination
34.9456°
RAAN
5.5726°
Arg. of periapsis
115.4523°
True anomaly
Unknown
Mean anomaly
244.7161°
Eccentric anomaly
Unknown
Mean motion
3.85705 °/min
Orbital period
93.34 mins
BSTAR
0.00024229
Loading maneuver chart data...
Loading SW <> Apogee altitude chart data...
Loading historical data...
Loading historical data...
Loading historical data...
Loading historical data...
Loading historical data...
Loading historical data...
Loading historical data...

CYGFM02 Visibility forecast

Observer location: undefined°, undefined°

Span
Click to sort rows by Start time (UTC) header in descending order
Start Az.
Max El. time (UTC)
Max El. Az.
Max El.
End time (UTC)
End Az.
4 mins2025-07-03 16:31:37.039Z211.726° SW2025-07-03 16:33:37.039Z163.821° S22.659°2025-07-03 16:35:37.039Z118.438° SE
5 mins2025-07-03 18:09:37.039Z236.595° WSW2025-07-03 18:11:37.039Z178.914° S29.549°2025-07-03 18:14:37.039Z114.924° SE
|